;"Summenlastgang aller Einspeisungen
Umspannung MS/NS
+ Vorgelagertes Netz
+ dezentrale Erzeugung"
Arbeit;212.063.498
H�chstleistung;42.954
Ab Zeit;20.01.2022 18:15
01.01.2022 00:00;22.973
01.01.2022 00:15;19.556
01.01.2022 00:30;20.268
01.01.2022 00:45;21.639
01.01.2022 01:00;19.881
01.01.2022 01:15;19.843
01.01.2022 01:30;20.009
01.01.2022 01:45;18.422
01.01.2022 02:00;18.450
01.01.2022 02:15;18.147
01.01.2022 02:30;18.492
01.01.2022 02:45;17.275
01.01.2022 03:00;18.074
01.01.2022 03:15;17.312
01.01.2022 03:30;16.093
01.01.2022 03:45;17.288
01.01.2022 04:00;16.202
01.01.2022 04:15;16.364
01.01.2022 04:30;16.608
01.01.2022 04:45;16.375
01.01.2022 05:00;16.408
01.01.2022 05:15;15.391
01.01.2022 05:30;12.560
01.01.2022 05:45;17.919
01.01.2022 06:00;16.318
01.01.2022 06:15;16.415
01.01.2022 06:30;15.744
01.01.2022 06:45;18.396
01.01.2022 07:00;17.904
01.01.2022 07:15;18.766
01.01.2022 07:30;17.654
01.01.2022 07:45;17.567
01.01.2022 08:00;19.190
01.01.2022 08:15;19.262
01.01.2022 08:30;18.668
01.01.2022 08:45;19.416
01.01.2022 09:00;21.724
01.01.2022 09:15;21.558
01.01.2022 09:30;21.419
01.01.2022 09:45;23.491
01.01.2022 10:00;24.982
01.01.2022 10:15;24.449
01.01.2022 10:30;25.446
01.01.2022 10:45;26.157
01.01.2022 11:00;27.805
01.01.2022 11:15;29.227
01.01.2022 11:30;29.481
01.01.2022 11:45;29.518
01.01.2022 12:00;30.083
01.01.2022 12:15;30.561
01.01.2022 12:30;30.706
01.01.2022 12:45;29.879
01.01.2022 13:00;30.145
01.01.2022 13:15;29.078
01.01.2022 13:30;29.892
01.01.2022 13:45;28.690
01.01.2022 14:00;28.161
01.01.2022 14:15;29.618
01.01.2022 14:30;29.265
01.01.2022 14:45;29.265
01.01.2022 15:00;29.317
01.01.2022 15:15;29.216
01.01.2022 15:30;28.661
01.01.2022 15:45;30.192
01.01.2022 16:00;31.157
01.01.2022 16:15;31.365
01.01.2022 16:30;31.966
01.01.2022 16:45;32.796
01.01.2022 17:00;34.243
01.01.2022 17:15;34.087
01.01.2022 17:30;33.756
01.01.2022 17:45;34.504
01.01.2022 18:00;34.517
01.01.2022 18:15;34.225
01.01.2022 18:30;33.910
01.01.2022 18:45;33.948
01.01.2022 19:00;33.253
01.01.2022 19:15;32.456
01.01.2022 19:30;32.493
01.01.2022 19:45;31.818
01.01.2022 20:00;32.157
01.01.2022 20:15;31.124
01.01.2022 20:30;29.968
01.01.2022 20:45;28.871
01.01.2022 21:00;28.181
01.01.2022 21:15;28.780
01.01.2022 21:30;26.940
01.01.2022 21:45;25.996
01.01.2022 22:00;25.970
01.01.2022 22:15;24.806
01.01.2022 22:30;23.698
01.01.2022 22:45;24.141
01.01.2022 23:00;23.544
01.01.2022 23:15;23.089
01.01.2022 23:30;21.121
01.01.2022 23:45;20.204
02.01.2022 00:00;20.281
02.01.2022 00:15;19.683
02.01.2022 00:30;19.229
02.01.2022 00:45;18.755
02.01.2022 01:00;17.783
02.01.2022 01:15;17.724
02.01.2022 01:30;16.876
02.01.2022 01:45;16.953
02.01.2022 02:00;16.530
02.01.2022 02:15;16.761
02.01.2022 02:30;15.793
02.01.2022 02:45;16.103
02.01.2022 03:00;14.518
02.01.2022 03:15;15.542
02.01.2022 03:30;15.865
02.01.2022 03:45;14.948
02.01.2022 04:00;14.584
02.01.2022 04:15;15.541
02.01.2022 04:30;15.194
02.01.2022 04:45;14.667
02.01.2022 05:00;15.568
02.01.2022 05:15;14.508
02.01.2022 05:30;15.174
02.01.2022 05:45;15.745
02.01.2022 06:00;16.094
02.01.2022 06:15;16.049
02.01.2022 06:30;15.761
02.01.2022 06:45;17.033
02.01.2022 07:00;17.241
02.01.2022 07:15;18.067
02.01.2022 07:30;17.300
02.01.2022 07:45;20.837
02.01.2022 08:00;19.736
02.01.2022 08:15;22.312
02.01.2022 08:30;22.159
02.01.2022 08:45;22.268
02.01.2022 09:00;24.420
02.01.2022 09:15;24.451
02.01.2022 09:30;24.463
02.01.2022 09:45;26.453
02.01.2022 10:00;27.222
02.01.2022 10:15;28.014
02.01.2022 10:30;28.340
02.01.2022 10:45;29.901
02.01.2022 11:00;33.840
02.01.2022 11:15;32.309
02.01.2022 11:30;33.187
02.01.2022 11:45;34.381
02.01.2022 12:00;35.111
02.01.2022 12:15;35.016
02.01.2022 12:30;34.389
02.01.2022 12:45;34.736
02.01.2022 13:00;33.623
02.01.2022 13:15;33.915
02.01.2022 13:30;33.171
02.01.2022 13:45;32.160
02.01.2022 14:00;32.934
02.01.2022 14:15;33.289
02.01.2022 14:30;32.687
02.01.2022 14:45;32.491
02.01.2022 15:00;32.031
02.01.2022 15:15;31.896
02.01.2022 15:30;32.023
02.01.2022 15:45;31.803
02.01.2022 16:00;31.838
02.01.2022 16:15;32.899
02.01.2022 16:30;33.135
02.01.2022 16:45;33.926
02.01.2022 17:00;34.839
02.01.2022 17:15;35.131
02.01.2022 17:30;36.462
02.01.2022 17:45;35.854
02.01.2022 18:00;35.406
02.01.2022 18:15;35.762
02.01.2022 18:30;35.694
02.01.2022 18:45;35.206
02.01.2022 19:00;33.972
02.01.2022 19:15;33.482
02.01.2022 19:30;33.288
02.01.2022 19:45;31.173
02.01.2022 20:00;31.075
02.01.2022 20:15;31.875
02.01.2022 20:30;30.804
02.01.2022 20:45;29.725
02.01.2022 21:00;28.206
02.01.2022 21:15;27.430
02.01.2022 21:30;27.237
02.01.2022 21:45;26.560
02.01.2022 22:00;25.527
02.01.2022 22:15;24.311
02.01.2022 22:30;24.338
02.01.2022 22:45;23.176
02.01.2022 23:00;22.277
02.01.2022 23:15;21.697
02.01.2022 23:30;21.417
02.01.2022 23:45;19.260
03.01.2022 00:00;19.151
03.01.2022 00:15;18.390
03.01.2022 00:30;17.946
03.01.2022 00:45;17.431
03.01.2022 01:00;16.655
03.01.2022 01:15;16.730
03.01.2022 01:30;16.527
03.01.2022 01:45;16.112
03.01.2022 02:00;16.144
03.01.2022 02:15;16.163
03.01.2022 02:30;15.995
03.01.2022 02:45;15.709
03.01.2022 03:00;15.425
03.01.2022 03:15;15.489
03.01.2022 03:30;15.392
03.01.2022 03:45;15.790
03.01.2022 04:00;15.655
03.01.2022 04:15;15.797
03.01.2022 04:30;15.600
03.01.2022 04:45;15.832
03.01.2022 05:00;17.188
03.01.2022 05:15;17.654
03.01.2022 05:30;19.304
03.01.2022 05:45;19.045
03.01.2022 06:00;17.610
03.01.2022 06:15;22.397
03.01.2022 06:30;20.434
03.01.2022 06:45;21.614
03.01.2022 07:00;25.314
03.01.2022 07:15;23.544
03.01.2022 07:30;25.940
03.01.2022 07:45;27.076
03.01.2022 08:00;28.488
03.01.2022 08:15;29.660
03.01.2022 08:30;29.308
03.01.2022 08:45;30.741
03.01.2022 09:00;30.106
03.01.2022 09:15;32.456
03.01.2022 09:30;31.414
03.01.2022 09:45;30.908
03.01.2022 10:00;33.041
03.01.2022 10:15;33.833
03.01.2022 10:30;33.504
03.01.2022 10:45;33.124
03.01.2022 11:00;33.839
03.01.2022 11:15;34.445
03.01.2022 11:30;34.242
03.01.2022 11:45;34.710
03.01.2022 12:00;35.334
03.01.2022 12:15;34.990
03.01.2022 12:30;35.579
03.01.2022 12:45;34.274
03.01.2022 13:00;37.064
03.01.2022 13:15;35.795
03.01.2022 13:30;35.516
03.01.2022 13:45;35.591
03.01.2022 14:00;35.166
03.01.2022 14:15;34.046
03.01.2022 14:30;34.611
03.01.2022 14:45;35.406
03.01.2022 15:00;34.548
03.01.2022 15:15;35.243
03.01.2022 15:30;37.047
03.01.2022 15:45;35.701
03.01.2022 16:00;34.189
03.01.2022 16:15;36.146
03.01.2022 16:30;38.139
03.01.2022 16:45;37.703
03.01.2022 17:00;37.473
03.01.2022 17:15;40.042
03.01.2022 17:30;39.568
03.01.2022 17:45;39.658
03.01.2022 18:00;38.797
03.01.2022 18:15;38.580
03.01.2022 18:30;38.528
03.01.2022 18:45;37.871
03.01.2022 19:00;36.497
03.01.2022 19:15;35.988
03.01.2022 19:30;35.277
03.01.2022 19:45;34.179
03.01.2022 20:00;33.531
03.01.2022 20:15;32.588
03.01.2022 20:30;31.296
03.01.2022 20:45;31.132
03.01.2022 21:00;29.861
03.01.2022 21:15;28.980
03.01.2022 21:30;28.712
03.01.2022 21:45;27.679
03.01.2022 22:00;26.007
03.01.2022 22:15;25.544
03.01.2022 22:30;24.533
03.01.2022 22:45;23.389
03.01.2022 23:00;22.401
03.01.2022 23:15;21.145
03.01.2022 23:30;22.161
03.01.2022 23:45;20.053
04.01.2022 00:00;19.473
04.01.2022 00:15;18.865
04.01.2022 00:30;17.518
04.01.2022 00:45;17.344
04.01.2022 01:00;17.212
04.01.2022 01:15;17.211
04.01.2022 01:30;16.477
04.01.2022 01:45;16.519
04.01.2022 02:00;15.983
04.01.2022 02:15;15.057
04.01.2022 02:30;16.162
04.01.2022 02:45;15.098
04.01.2022 03:00;15.801
04.01.2022 03:15;16.323
04.01.2022 03:30;15.121
04.01.2022 03:45;15.574
04.01.2022 04:00;15.709
04.01.2022 04:15;15.793
04.01.2022 04:30;15.488
04.01.2022 04:45;16.669
04.01.2022 05:00;17.895
04.01.2022 05:15;16.661
04.01.2022 05:30;19.449
04.01.2022 05:45;19.919
04.01.2022 06:00;20.696
04.01.2022 06:15;20.610
04.01.2022 06:30;22.011
04.01.2022 06:45;21.028
04.01.2022 07:00;23.874
04.01.2022 07:15;24.151
04.01.2022 07:30;25.432
04.01.2022 07:45;28.177
04.01.2022 08:00;28.060
04.01.2022 08:15;29.733
04.01.2022 08:30;29.305
04.01.2022 08:45;30.037
04.01.2022 09:00;29.954
04.01.2022 09:15;31.082
04.01.2022 09:30;31.981
04.01.2022 09:45;31.860
04.01.2022 10:00;32.660
04.01.2022 10:15;33.077
04.01.2022 10:30;33.458
04.01.2022 10:45;34.248
04.01.2022 11:00;33.712
04.01.2022 11:15;35.605
04.01.2022 11:30;37.451
04.01.2022 11:45;35.856
04.01.2022 12:00;36.516
04.01.2022 12:15;36.895
04.01.2022 12:30;36.039
04.01.2022 12:45;35.848
04.01.2022 13:00;36.733
04.01.2022 13:15;34.284
04.01.2022 13:30;37.037
04.01.2022 13:45;35.333
04.01.2022 14:00;35.032
04.01.2022 14:15;34.268
04.01.2022 14:30;33.649
04.01.2022 14:45;33.391
04.01.2022 15:00;34.173
04.01.2022 15:15;34.179
04.01.2022 15:30;34.875
04.01.2022 15:45;34.846
04.01.2022 16:00;35.510
04.01.2022 16:15;35.676
04.01.2022 16:30;35.633
04.01.2022 16:45;37.232
04.01.2022 17:00;38.543
04.01.2022 17:15;38.781
04.01.2022 17:30;38.761
04.01.2022 17:45;40.591
04.01.2022 18:00;38.887
04.01.2022 18:15;39.012
04.01.2022 18:30;38.169
04.01.2022 18:45;37.869
04.01.2022 19:00;36.551
04.01.2022 19:15;35.632
04.01.2022 19:30;36.404
04.01.2022 19:45;34.293
04.01.2022 20:00;33.970
04.01.2022 20:15;32.952
04.01.2022 20:30;32.078
04.01.2022 20:45;31.884
04.01.2022 21:00;31.108
04.01.2022 21:15;29.550
04.01.2022 21:30;28.590
04.01.2022 21:45;26.378
04.01.2022 22:00;26.434
04.01.2022 22:15;25.078
04.01.2022 22:30;25.353
04.01.2022 22:45;24.576
04.01.2022 23:00;22.254
04.01.2022 23:15;21.576
04.01.2022 23:30;21.999
04.01.2022 23:45;21.331
05.01.2022 00:00;21.548
05.01.2022 00:15;18.963
05.01.2022 00:30;17.469
05.01.2022 00:45;16.770
05.01.2022 01:00;17.963
05.01.2022 01:15;18.319
05.01.2022 01:30;16.773
05.01.2022 01:45;17.568
05.01.2022 02:00;16.100
05.01.2022 02:15;16.755
05.01.2022 02:30;15.341
05.01.2022 02:45;15.932
05.01.2022 03:00;15.433
05.01.2022 03:15;15.305
05.01.2022 03:30;16.305
05.01.2022 03:45;15.993
05.01.2022 04:00;16.243
05.01.2022 04:15;16.861
05.01.2022 04:30;16.856
05.01.2022 04:45;17.231
05.01.2022 05:00;18.221
05.01.2022 05:15;18.181
05.01.2022 05:30;19.173
05.01.2022 05:45;21.047
05.01.2022 06:00;21.398
05.01.2022 06:15;23.086
05.01.2022 06:30;22.739
05.01.2022 06:45;23.260
05.01.2022 07:00;25.289
05.01.2022 07:15;25.781
05.01.2022 07:30;26.870
05.01.2022 07:45;27.433
05.01.2022 08:00;29.309
05.01.2022 08:15;31.651
05.01.2022 08:30;31.380
05.01.2022 08:45;30.786
05.01.2022 09:00;30.538
05.01.2022 09:15;31.426
05.01.2022 09:30;32.333
05.01.2022 09:45;32.989
05.01.2022 10:00;32.930
05.01.2022 10:15;32.705
05.01.2022 10:30;34.085
05.01.2022 10:45;34.528
05.01.2022 11:00;36.607
05.01.2022 11:15;37.525
05.01.2022 11:30;35.947
05.01.2022 11:45;34.360
05.01.2022 12:00;35.845
05.01.2022 12:15;37.870
05.01.2022 12:30;39.909
05.01.2022 12:45;36.617
05.01.2022 13:00;34.282
05.01.2022 13:15;33.265
05.01.2022 13:30;36.695
05.01.2022 13:45;36.241
05.01.2022 14:00;35.277
05.01.2022 14:15;34.410
05.01.2022 14:30;34.723
05.01.2022 14:45;34.903
05.01.2022 15:00;34.723
05.01.2022 15:15;37.699
05.01.2022 15:30;36.400
05.01.2022 15:45;35.079
05.01.2022 16:00;36.220
05.01.2022 16:15;36.501
05.01.2022 16:30;37.137
05.01.2022 16:45;38.473
05.01.2022 17:00;39.650
05.01.2022 17:15;39.523
05.01.2022 17:30;40.174
05.01.2022 17:45;39.771
05.01.2022 18:00;39.729
05.01.2022 18:15;39.319
05.01.2022 18:30;39.291
05.01.2022 18:45;37.987
05.01.2022 19:00;38.532
05.01.2022 19:15;37.027
05.01.2022 19:30;36.361
05.01.2022 19:45;34.160
05.01.2022 20:00;34.593
05.01.2022 20:15;33.330
05.01.2022 20:30;32.883
05.01.2022 20:45;31.519
05.01.2022 21:00;33.419
05.01.2022 21:15;29.112
05.01.2022 21:30;29.124
05.01.2022 21:45;30.172
05.01.2022 22:00;23.845
05.01.2022 22:15;28.589
05.01.2022 22:30;23.285
05.01.2022 22:45;25.448
05.01.2022 23:00;21.592
05.01.2022 23:15;23.943
05.01.2022 23:30;21.300
05.01.2022 23:45;20.775
06.01.2022 00:00;20.034
06.01.2022 00:15;19.559
06.01.2022 00:30;18.857
06.01.2022 00:45;18.364
06.01.2022 01:00;18.230
06.01.2022 01:15;17.856
06.01.2022 01:30;17.309
06.01.2022 01:45;16.721
06.01.2022 02:00;15.957
06.01.2022 02:15;16.728
06.01.2022 02:30;17.685
06.01.2022 02:45;16.931
06.01.2022 03:00;16.286
06.01.2022 03:15;16.299
06.01.2022 03:30;16.360
06.01.2022 03:45;16.211
06.01.2022 04:00;16.555
06.01.2022 04:15;15.412
06.01.2022 04:30;16.892
06.01.2022 04:45;17.099
06.01.2022 05:00;17.695
06.01.2022 05:15;18.451
06.01.2022 05:30;18.545
06.01.2022 05:45;19.817
06.01.2022 06:00;21.786
06.01.2022 06:15;22.021
06.01.2022 06:30;23.130
06.01.2022 06:45;23.973
06.01.2022 07:00;25.024
06.01.2022 07:15;25.616
06.01.2022 07:30;26.914
06.01.2022 07:45;28.114
06.01.2022 08:00;29.825
06.01.2022 08:15;29.880
06.01.2022 08:30;30.220
06.01.2022 08:45;31.170
06.01.2022 09:00;31.098
06.01.2022 09:15;31.428
06.01.2022 09:30;31.753
06.01.2022 09:45;31.912
06.01.2022 10:00;32.227
06.01.2022 10:15;32.483
06.01.2022 10:30;32.664
06.01.2022 10:45;32.821
06.01.2022 11:00;33.237
06.01.2022 11:15;33.272
06.01.2022 11:30;33.255
06.01.2022 11:45;33.623
06.01.2022 12:00;33.927
06.01.2022 12:15;33.790
06.01.2022 12:30;34.099
06.01.2022 12:45;34.126
06.01.2022 13:00;33.479
06.01.2022 13:15;33.701
06.01.2022 13:30;33.926
06.01.2022 13:45;33.553
06.01.2022 14:00;33.071
06.01.2022 14:15;33.523
06.01.2022 14:30;34.120
06.01.2022 14:45;34.779
06.01.2022 15:00;33.895
06.01.2022 15:15;34.182
06.01.2022 15:30;34.137
06.01.2022 15:45;34.561
06.01.2022 16:00;34.432
06.01.2022 16:15;35.583
06.01.2022 16:30;35.956
06.01.2022 16:45;38.157
06.01.2022 17:00;38.422
06.01.2022 17:15;39.578
06.01.2022 17:30;40.502
06.01.2022 17:45;39.694
06.01.2022 18:00;39.487
06.01.2022 18:15;39.186
06.01.2022 18:30;39.825
06.01.2022 18:45;38.958
06.01.2022 19:00;37.085
06.01.2022 19:15;37.306
06.01.2022 19:30;36.378
06.01.2022 19:45;35.155
06.01.2022 20:00;34.529
06.01.2022 20:15;33.608
06.01.2022 20:30;33.078
06.01.2022 20:45;31.849
06.01.2022 21:00;31.270
06.01.2022 21:15;29.867
06.01.2022 21:30;28.579
06.01.2022 21:45;28.005
06.01.2022 22:00;27.949
06.01.2022 22:15;25.730
06.01.2022 22:30;25.546
06.01.2022 22:45;23.936
06.01.2022 23:00;22.793
06.01.2022 23:15;22.528
06.01.2022 23:30;21.429
06.01.2022 23:45;21.360
07.01.2022 00:00;20.333
07.01.2022 00:15;19.388
07.01.2022 00:30;18.477
07.01.2022 00:45;18.243
07.01.2022 01:00;17.986
07.01.2022 01:15;18.218
07.01.2022 01:30;16.781
07.01.2022 01:45;16.687
07.01.2022 02:00;16.679
07.01.2022 02:15;16.498
07.01.2022 02:30;16.638
07.01.2022 02:45;15.910
07.01.2022 03:00;16.262
07.01.2022 03:15;15.684
07.01.2022 03:30;16.197
07.01.2022 03:45;15.429
07.01.2022 04:00;16.768
07.01.2022 04:15;17.048
07.01.2022 04:30;16.800
07.01.2022 04:45;17.315
07.01.2022 05:00;18.417
07.01.2022 05:15;18.286
07.01.2022 05:30;18.801
07.01.2022 05:45;20.074
07.01.2022 06:00;21.544
07.01.2022 06:15;22.274
07.01.2022 06:30;23.184
07.01.2022 06:45;23.916
07.01.2022 07:00;25.007
07.01.2022 07:15;26.139
07.01.2022 07:30;27.515
07.01.2022 07:45;28.128
07.01.2022 08:00;29.652
07.01.2022 08:15;30.094
07.01.2022 08:30;30.883
07.01.2022 08:45;31.377
07.01.2022 09:00;32.355
07.01.2022 09:15;32.846
07.01.2022 09:30;33.088
07.01.2022 09:45;34.005
07.01.2022 10:00;33.387
07.01.2022 10:15;34.992
07.01.2022 10:30;35.127
07.01.2022 10:45;35.554
07.01.2022 11:00;35.568
07.01.2022 11:15;35.567
07.01.2022 11:30;36.522
07.01.2022 11:45;36.847
07.01.2022 12:00;37.049
07.01.2022 12:15;36.485
07.01.2022 12:30;37.502
07.01.2022 12:45;37.024
07.01.2022 13:00;36.768
07.01.2022 13:15;37.188
07.01.2022 13:30;36.652
07.01.2022 13:45;35.383
07.01.2022 14:00;33.767
07.01.2022 14:15;35.163
07.01.2022 14:30;33.678
07.01.2022 14:45;33.420
07.01.2022 15:00;35.795
07.01.2022 15:15;35.187
07.01.2022 15:30;35.577
07.01.2022 15:45;35.596
07.01.2022 16:00;36.176
07.01.2022 16:15;36.680
07.01.2022 16:30;36.492
07.01.2022 16:45;37.719
07.01.2022 17:00;38.340
07.01.2022 17:15;38.672
07.01.2022 17:30;38.972
07.01.2022 17:45;38.768
07.01.2022 18:00;39.470
07.01.2022 18:15;38.731
07.01.2022 18:30;38.392
07.01.2022 18:45;38.215
07.01.2022 19:00;37.687
07.01.2022 19:15;36.948
07.01.2022 19:30;35.787
07.01.2022 19:45;34.906
07.01.2022 20:00;34.668
07.01.2022 20:15;33.483
07.01.2022 20:30;32.035
07.01.2022 20:45;31.539
07.01.2022 21:00;30.506
07.01.2022 21:15;29.437
07.01.2022 21:30;28.589
07.01.2022 21:45;27.981
07.01.2022 22:00;27.632
07.01.2022 22:15;27.074
07.01.2022 22:30;26.066
07.01.2022 22:45;25.071
07.01.2022 23:00;23.529
07.01.2022 23:15;23.635
07.01.2022 23:30;22.465
07.01.2022 23:45;22.345
08.01.2022 00:00;21.506
08.01.2022 00:15;21.006
08.01.2022 00:30;19.598
08.01.2022 00:45;19.340
08.01.2022 01:00;18.868
08.01.2022 01:15;17.708
08.01.2022 01:30;18.798
08.01.2022 01:45;15.804
08.01.2022 02:00;17.965
08.01.2022 02:15;17.441
08.01.2022 02:30;17.665
08.01.2022 02:45;16.988
08.01.2022 03:00;16.273
08.01.2022 03:15;16.675
08.01.2022 03:30;16.840
08.01.2022 03:45;16.208
08.01.2022 04:00;16.762
08.01.2022 04:15;16.582
08.01.2022 04:30;16.381
08.01.2022 04:45;16.896
08.01.2022 05:00;17.222
08.01.2022 05:15;17.868
08.01.2022 05:30;17.454
08.01.2022 05:45;17.272
08.01.2022 06:00;19.438
08.01.2022 06:15;20.345
08.01.2022 06:30;20.414
08.01.2022 06:45;20.354
08.01.2022 07:00;21.387
08.01.2022 07:15;22.487
08.01.2022 07:30;23.437
08.01.2022 07:45;24.360
08.01.2022 08:00;24.838
08.01.2022 08:15;25.235
08.01.2022 08:30;26.110
08.01.2022 08:45;27.218
08.01.2022 09:00;27.327
08.01.2022 09:15;29.716
08.01.2022 09:30;29.142
08.01.2022 09:45;30.204
08.01.2022 10:00;30.303
08.01.2022 10:15;31.552
08.01.2022 10:30;31.742
08.01.2022 10:45;31.953
08.01.2022 11:00;31.082
08.01.2022 11:15;32.790
08.01.2022 11:30;34.055
08.01.2022 11:45;33.788
08.01.2022 12:00;33.668
08.01.2022 12:15;34.391
08.01.2022 12:30;34.943
08.01.2022 12:45;35.051
08.01.2022 13:00;33.285
08.01.2022 13:15;34.355
08.01.2022 13:30;33.588
08.01.2022 13:45;33.221
08.01.2022 14:00;33.294
08.01.2022 14:15;32.613
08.01.2022 14:30;33.401
08.01.2022 14:45;33.438
08.01.2022 15:00;31.410
08.01.2022 15:15;33.692
08.01.2022 15:30;36.024
08.01.2022 15:45;34.140
08.01.2022 16:00;35.348
08.01.2022 16:15;36.228
08.01.2022 16:30;37.208
08.01.2022 16:45;37.939
08.01.2022 17:00;38.360
08.01.2022 17:15;38.225
08.01.2022 17:30;39.201
08.01.2022 17:45;38.501
08.01.2022 18:00;38.821
08.01.2022 18:15;39.240
08.01.2022 18:30;37.883
08.01.2022 18:45;38.051
08.01.2022 19:00;36.655
08.01.2022 19:15;36.768
08.01.2022 19:30;35.513
08.01.2022 19:45;35.049
08.01.2022 20:00;34.004
08.01.2022 20:15;33.131
08.01.2022 20:30;32.097
08.01.2022 20:45;32.375
08.01.2022 21:00;30.597
08.01.2022 21:15;29.604
08.01.2022 21:30;28.523
08.01.2022 21:45;29.720
08.01.2022 22:00;27.039
08.01.2022 22:15;26.812
08.01.2022 22:30;26.139
08.01.2022 22:45;25.000
08.01.2022 23:00;24.396
08.01.2022 23:15;24.301
08.01.2022 23:30;22.721
08.01.2022 23:45;22.136
09.01.2022 00:00;21.374
09.01.2022 00:15;20.802
09.01.2022 00:30;19.686
09.01.2022 00:45;19.976
09.01.2022 01:00;18.736
09.01.2022 01:15;18.682
09.01.2022 01:30;18.338
09.01.2022 01:45;17.694
09.01.2022 02:00;17.163
09.01.2022 02:15;17.317
09.01.2022 02:30;17.562
09.01.2022 02:45;16.463
09.01.2022 03:00;16.898
09.01.2022 03:15;16.896
09.01.2022 03:30;15.777
09.01.2022 03:45;16.958
09.01.2022 04:00;15.806
09.01.2022 04:15;16.421
09.01.2022 04:30;15.809
09.01.2022 04:45;16.543
09.01.2022 05:00;16.733
09.01.2022 05:15;17.323
09.01.2022 05:30;16.394
09.01.2022 05:45;17.175
09.01.2022 06:00;17.102
09.01.2022 06:15;18.008
09.01.2022 06:30;17.901
09.01.2022 06:45;18.247
09.01.2022 07:00;18.892
09.01.2022 07:15;18.684
09.01.2022 07:30;19.964
09.01.2022 07:45;20.610
09.01.2022 08:00;21.134
09.01.2022 08:15;22.166
09.01.2022 08:30;23.589
09.01.2022 08:45;23.544
09.01.2022 09:00;24.871
09.01.2022 09:15;25.557
09.01.2022 09:30;27.569
09.01.2022 09:45;26.983
09.01.2022 10:00;27.061
09.01.2022 10:15;32.059
09.01.2022 10:30;30.633
09.01.2022 10:45;31.517
09.01.2022 11:00;33.586
09.01.2022 11:15;35.306
09.01.2022 11:30;35.463
09.01.2022 11:45;34.547
09.01.2022 12:00;35.985
09.01.2022 12:15;36.438
09.01.2022 12:30;36.010
09.01.2022 12:45;35.746
09.01.2022 13:00;35.148
09.01.2022 13:15;35.427
09.01.2022 13:30;35.092
09.01.2022 13:45;33.583
09.01.2022 14:00;33.649
09.01.2022 14:15;33.392
09.01.2022 14:30;32.113
09.01.2022 14:45;32.006
09.01.2022 15:00;32.544
09.01.2022 15:15;33.177
09.01.2022 15:30;33.483
09.01.2022 15:45;32.360
09.01.2022 16:00;32.718
09.01.2022 16:15;33.232
09.01.2022 16:30;33.544
09.01.2022 16:45;35.350
09.01.2022 17:00;36.262
09.01.2022 17:15;36.520
09.01.2022 17:30;37.204
09.01.2022 17:45;37.424
09.01.2022 18:00;37.170
09.01.2022 18:15;37.551
09.01.2022 18:30;36.145
09.01.2022 18:45;36.487
09.01.2022 19:00;35.398
09.01.2022 19:15;34.908
09.01.2022 19:30;33.492
09.01.2022 19:45;32.279
09.01.2022 20:00;32.903
09.01.2022 20:15;31.680
09.01.2022 20:30;30.678
09.01.2022 20:45;29.881
09.01.2022 21:00;29.155
09.01.2022 21:15;28.275
09.01.2022 21:30;27.196
09.01.2022 21:45;26.371
09.01.2022 22:00;26.222
09.01.2022 22:15;25.568
09.01.2022 22:30;24.345
09.01.2022 22:45;22.421
09.01.2022 23:00;22.108
09.01.2022 23:15;20.681
09.01.2022 23:30;19.931
09.01.2022 23:45;19.837
10.01.2022 00:00;19.399
10.01.2022 00:15;19.771
10.01.2022 00:30;17.855
10.01.2022 00:45;17.739
10.01.2022 01:00;16.402
10.01.2022 01:15;17.859
10.01.2022 01:30;16.070
10.01.2022 01:45;16.408
10.01.2022 02:00;16.861
10.01.2022 02:15;16.597
10.01.2022 02:30;15.623
10.01.2022 02:45;15.904
10.01.2022 03:00;14.813
10.01.2022 03:15;16.567
10.01.2022 03:30;15.890
10.01.2022 03:45;15.849
10.01.2022 04:00;15.542
10.01.2022 04:15;16.405
10.01.2022 04:30;16.839
10.01.2022 04:45;17.232
10.01.2022 05:00;18.316
10.01.2022 05:15;18.200
10.01.2022 05:30;19.630
10.01.2022 05:45;20.091
10.01.2022 06:00;21.674
10.01.2022 06:15;23.522
10.01.2022 06:30;23.848
10.01.2022 06:45;24.975
10.01.2022 07:00;27.960
10.01.2022 07:15;28.019
10.01.2022 07:30;28.166
10.01.2022 07:45;29.916
10.01.2022 08:00;31.906
10.01.2022 08:15;31.893
10.01.2022 08:30;31.894
10.01.2022 08:45;32.109
10.01.2022 09:00;32.369
10.01.2022 09:15;32.178
10.01.2022 09:30;32.442
10.01.2022 09:45;32.441
10.01.2022 10:00;32.485
10.01.2022 10:15;32.549
10.01.2022 10:30;33.059
10.01.2022 10:45;33.539
10.01.2022 11:00;34.263
10.01.2022 11:15;34.785
10.01.2022 11:30;34.957
10.01.2022 11:45;34.930
10.01.2022 12:00;34.946
10.01.2022 12:15;35.619
10.01.2022 12:30;35.832
10.01.2022 12:45;35.751
10.01.2022 13:00;35.222
10.01.2022 13:15;35.158
10.01.2022 13:30;35.335
10.01.2022 13:45;35.526
10.01.2022 14:00;35.966
10.01.2022 14:15;35.249
10.01.2022 14:30;35.022
10.01.2022 14:45;34.841
10.01.2022 15:00;35.307
10.01.2022 15:15;35.729
10.01.2022 15:30;35.573
10.01.2022 15:45;35.583
10.01.2022 16:00;36.423
10.01.2022 16:15;36.912
10.01.2022 16:30;37.565
10.01.2022 16:45;38.291
10.01.2022 17:00;38.850
10.01.2022 17:15;38.997
10.01.2022 17:30;39.379
10.01.2022 17:45;39.514
10.01.2022 18:00;38.969
10.01.2022 18:15;38.821
10.01.2022 18:30;38.442
10.01.2022 18:45;38.090
10.01.2022 19:00;36.935
10.01.2022 19:15;36.276
10.01.2022 19:30;35.076
10.01.2022 19:45;34.924
10.01.2022 20:00;33.486
10.01.2022 20:15;32.909
10.01.2022 20:30;31.685
10.01.2022 20:45;30.776
10.01.2022 21:00;29.838
10.01.2022 21:15;28.475
10.01.2022 21:30;27.601
10.01.2022 21:45;26.826
10.01.2022 22:00;25.846